Location: Staunton
(38.1490°N, 79.0720°W)
Time: 11:18:20
(UTC-04:00)

ISS - Pass Details

Date: 31 May 2020
Orbit: 417 x 420 km, 51.6° (Epoch: 26 May)

Event Time Altitude Azimuth Distance (km) Brightness Sun altitude
Rises 22:36:21 0° 308° (NW) 2,363 1.5 -19.3°
Reaches altitude 10° 22:38:27 10° 307° (NW) 1,496 0.2 -19.5°
Enters shadow 22:41:47 77° 230° (SW) 431 -3.8 -19.9°
